www.pogodaiklimat.ru

Погода и климат >> Архив погоды >> Иран >> Кехнудж


ПОГОДА в Кехнудже

  • Прогноз погоды в Кехнудже
  • Монитор погоды в Кехнудже

АРХИВ ПОГОДЫ в Кехнудже

Время (UTC), дата Ветер
(напр.,м/с)
 
Видим.   Явления Облачность Т
(С)
Тd
(С)
f
(%)
Тe
(С)
Тes
(С)
Комфортность P
(гПа)
Po
(гПа)
Тmin
(С)
Tmax
(С)
R
(мм)
R24
(мм)
S
(см)
03 12.09 З 2 10 км ясно +29.2 +16.8 47 +33 +34 очень
душно
999.6 949.5 +28.5
06 12.09 Ю 2 10 км ясно +37.9 +16.1 28 +40 +53 опасность
солнечного
удара
1000.2 950.3
09 12.09 штиль 0 10 км ясно +42.6 +9.4 14 +41 +64 опасность
перегрева
997.7 948.0
12 12.09 З 5 10 км ясно +43.4 +12.8 17 +43 +46 опасность
перегрева
995.2 945.6
15 12.09 ЮЗ 8 10 км ясно +38.1 +17.6 30 +41 +41 опасность
перегрева
996.5 946.3 +44.0
18 12.09 ЮЗ 7 10 км ясно +33.6 +16.4 36 +36 +36 очень
душно
998.1 948.3
21 12.09 ЮЗ 4 10 км ясно +31.9 +15.8 38 +35 +35 очень
душно
997.8 948.2
00 13.09 З 3 10 км ясно +31.4 +16.3 40 +34 +34 душно 997.2 947.6
03 13.09 штиль 0 10 км ясно +28.8 +17.6 51 +33 +34 очень
душно
999.7 949.4 +28.6
06 13.09 З 5 10 км ясно +35.2 +17.0 34 +38 +45 очень
душно
1001.1 950.9
09 13.09 З 6 10 км ясно +39.1 +17.2 28 +42 +49 опасность
перегрева
998.7 948.7
12 13.09 З 6 10 км ясно +40.5 +19.7 30 +45 +47 опасность
перегрева
995.7 946.1
15 13.09 З 7 10 км ясно +36.5 +17.8 33 +40 +40 очень
душно
997.2 946.9 +40.7
18 13.09 З 6 10 км ясно +33.8 +18.0 39 +38 +38 очень
душно
998.9 948.8
21 13.09 З 9 10 км ясно +31.1 +19.7 51 +37 +37 очень
душно
998.7 948.8
00 14.09 З 3 10 км ясно +29.6 +19.4 54 +35 +35 очень
душно
998.0 948.1
03 14.09 З 2 10 км ясно +28.4 +19.3 58 +34 +35 очень
душно
1000.6 950.2 +28.0
06 14.09 ЮЗ 4 10 км ясно +35.3 +21.7 45 +43 +52 опасность
перегрева
1001.0 951.0
09 14.09 ЮЗ 2 10 км ясно +40.9 +18.1 27 +44 +61 опасность
перегрева
999.0 949.2
12 14.09 Ю 2 10 км 3/3 1200 м
[Cu hum]
+43.5 +13.4 17 +43 +47 опасность
перегрева
997.0 947.3
15 14.09 З 5 10 км ясно +38.4 +21.8 39 +46 +46 опасность
перегрева
997.9 947.9 +43.5
18 14.09 З 4 10 км ясно +34.3 +22.2 49 +43 +43 опасность
перегрева
1000.0 950.0
21 14.09 З 6 10 км ясно +33.1 +20.9 49 +40 +40 очень
душно
999.7 950.0
00 15.09 штиль 0 10 км ясно +30.8 +20.3 54 +38 +38 очень
душно
999.7 950.1
03 15.09 З 2 10 км ясно +30.2 +21.8 61 +39 +40 очень
душно
1001.7 951.6 +29.3
06 15.09 штиль 0 10 км ясно +36.0 +20.2 40 +42 +59 опасность
перегрева
1003.3 953.2
09 15.09 ЮВ 4 10 км ясно +41.6 +12.5 18 +41 +53 опасность
перегрева
1001.2 951.3
12 15.09 ЮВ 2 10 км ясно +43.1 +8.8 13 +41 +46 опасность
перегрева
999.1 949.3
15 15.09 Ю 4 10 км ясно +40.1 +4.8 12 +37 +37 очень
жарко
1000.0 949.7 +43.2
18 15.09 ЮЗ 3 10 км ясно +35.0 +19.4 40 +40 +40 очень
душно
1002.0 952.0
21 15.09 ЮЗ 4 10 км ясно +32.0 +23.2 60 +43 +43 опасность
перегрева
1001.2 951.6
00 16.09 З 2 10 км ясно +30.2 +22.5 63 +39 +39 очень
душно
1001.1 951.4
03 16.09 штиль 0 10 км ясно +28.7 +22.7 70 +38 +39 очень
душно
1002.9 952.7 +28.7
06 16.09 штиль 0 10 км 4/0
[Ci fib]
+38.2 +15.0 25 +39 +55 опасность
солнечного
удара
1003.7 953.6
09 16.09 ЮВ 3 10 км 4/0
[Ci fib]
+41.4 +12.2 18 +41 +54 опасность
перегрева
1001.0 951.1
12 16.09 ЮВ 2 10 км 4/0
[Ci fib]
+43.2 +9.3 13 +41 +46 опасность
перегрева
998.8 948.9
15 16.09 ЮЗ 3 10 км ясно +39.2 +6.1 13 +36 +36 очень
жарко
999.4 949.0 +43.2
18 16.09 ЮЗ 4 10 км ясно +35.4 +16.2 32 +38 +38 очень
душно
1000.5 950.7
21 16.09 З 2 10 км ясно +34.7 +11.8 25 +34 +34 очень
жарко
1000.4 950.7
00 17.09 ЮЗ 3 10 км ясно +31.2 +13.8 35 +33 +33 жарко 1000.1 950.3
03 17.09 штиль 0 10 км 3/0
[Ci fib]
+27.4 +15.7 49 +30 +32 жарко 1002.0 951.6 +26.5
06 17.09 штиль 0 10 км ясно +38.3 +7.7 16 +36 +53 опасность
солнечного
удара
1002.6 952.5
09 17.09 Ю 2 10 км ясно +41.7 +4.3 10 +39 +55 опасность
солнечного
удара
1000.1 950.3
12 17.09 Ю 2 10 км ясно +42.6 +2.2 8 +39 +44 очень
жарко
997.5 947.6
15 17.09 ЮВ 2 10 км ясно +38.4 +2.4 11 +35 +35 очень
жарко
998.5 948.0 +43.2
18 17.09 З 3 10 км ясно +35.8 +14.6 28 +37 +37 душно 999.2 949.5
21 17.09 З 3 10 км ясно +31.9 +14.3 34 +33 +33 жарко 999.7 949.8
00 18.09 З 3 10 км ясно +30.6 +13.3 35 +32 +32 жарко 999.5 949.6
03 18.09 З 2 10 км ясно +29.4 +12.4 35 +30 +31 жарко 1001.6 951.3 +28.4
06 18.09 штиль 0 10 км ясно +37.8 +12.2 22 +37 +54 опасность
солнечного
удара
1002.5 952.5
09 18.09 ЮВ 2 10 км ясно +42.3 +4.0 10 +39 +56 опасность
солнечного
удара
1000.5 950.5
12 18.09 ЮВ 2 10 км ясно +43.5 +0.7 7 +40 +45 очень
жарко
998.9 949.0
15 18.09 ЮВ 2 10 км ясно +39.1 +1.4 10 +36 +36 очень
жарко
1000.2 949.7 +43.9
18 18.09 ЮЗ 3 10 км ясно +35.4 +9.2 20 +34 +34 очень
жарко
1001.3 951.3
21 18.09 З 3 10 км ясно +31.2 +10.5 28 +31 +31 жарко 1001.3 951.3
00 19.09 З 3 10 км ясно +29.4 +13.9 39 +31 +31 жарко 1001.1 951.1

 

Местоположение метеостанции Кехнудж (Иран): широта 27.97 долгота 57.70 высота над уровнем моря 470 м.

В архиве по умолчанию представлена погода в Кехнудже за последнюю неделю. Архивные данные за месяц целиком и за предыдущие месяцы, начиная с января 2011 года, Вы можете получить, выбрав интересующий диапазон дат из раскрывающегося списка и нажав кнопку "Ввод!".


*Определитесь, кто Вы:
робот инопланетянин человек

Внимание! Время в таблицах - всемирное. Для получения местного времени необходимо прибавить поправку, которая равна 3.5 ч.

Смотрите также архив погоды в соседних городах и на ближайших метеорологических станциях:

Погода в Баме (Иран) (143 км)
Погода в Бендер-Аббасе (Иран) (155 км)
Погода в Бафте (Иран) (178 км)
Погода в Эль-Хасабе (Оман) (243 км)
Погода в Эль-Хасаб аэропорту (Оман) (248 км)
Погода в Сирджане (Иран) (255 км)
Погода в Джаске (Иран) (260 км)
Погода в Кермане (Иран) (263 км)
Погода в Дибе (Оман) (298 км)
Погода в Ираншехре (Иран) (308 км)

Пояснения к столбцам:

Ветер - указаны скорость ветра в м/с - средняя за 10 мин, порывы в срок и между сроками (в фигурных скобках) и направление, откуда дует ветер: С - северный, СВ - северо-восточный, В - восточный, ЮВ - юго-восточный, Ю - южный, ЮЗ - юго-западный, З - западный, СЗ - северо-западный.
Видимость - горизонтальная дальность видимости в метрах или километрах. При видимости от 1 до 10 км при отсутствии осадков обычно наблюдается дымка, при ухудшении видимости до 1 км и менее - туман. В сухую погоду видимость может ухудшаться дымом, пылью или мглою.
Явления - указаны атмосферные явления, наблюдавшиеся в срок или в последний час перед сроком; фигурными скобками обозначены явления, наблюдавшиеся между сроками (за 1-3 часа до срока); квадратными скобками обозначены град или гололедные отложения с указанием их диаметра в мм.
Облачность - указаны через наклонную черту общая и нижняя облачность в баллах и высота нижней границы облаков в метрах; квадратными скобками обозначены формы облаков: Ci - перистые, Cs - перисто-слоистые, Cc - перисто-кучевые, Ac - высококучевые, As - высокослоистые, Sc - слоисто-кучевые, Ns - слоисто-дождевые, Cu - кучевые, Cb - кучево-дождевые. Подробнее классификацию облаков см. в Атласе облаков (PDF).
T - Температура воздуха - температура, измеренная на высоте 2 м над землей.
Td - Температура точки росы - температура, при понижении до которой содержащийся в воздухе водяной пар достигнет насыщения.
f - Относительная влажность воздуха - влажноcть воздуха, измеренная на высоте 2 м над землей.
Te - Эффективная температура - температура, которую ощущает одетый по сезону человек в тени. Характеристика душности погоды. При расчете учитывается влияние влажности воздуха и скорости ветра на теплоощущения человека.
Tes - Эффективная температура на солнце - температура, которую ощущает человек, с поправкой на солнечный нагрев. Характеристика знойности погоды. Зависит от высоты солнца над горизонтом, облачности и скорости ветра. Ночью, в пасмурную погоду, а также при ветре 12 м/с и более поправка равна нулю.
P - Атмосферное давление - приведенное к уровню моря атмосферное давление.
Po - Атмосферное давление - измеренное на уровне метеостанции атмосферное давление.
Tmin - Минимальная температура - минимум температуры воздуха на высоте 2 м над землей.
Tmax - Максимальная температура - максимум температуры воздуха на высоте 2 м над землей.
R - Количество осадков - Количество выпавших осадков за период времени, мм. При наведении курсора мыши на число - период времени, за который выпало указанное количество осадков.
R24 - Количество осадков - Количество выпавших осадков за 24 часа, мм.
S - Снежный покров - Высота снежного покрова, см. При наведении курсора мыши на число - состояние снежного покрова и степень покрытия местности в баллах.